User: anonymous   Login
Location: Unspecified
(0.0000°N, 0.0000°E)
Time: 17:19:05
(UTC+00:00)
Language:

Gonets-D1 - Orbit

View from above orbital plane
View from above orbital plane
View from above satellite
View from above satellite

Ground track
Ground track

The orbit data is extracted from the following two-line orbital elements,

1 24727U 97006C   18112.86128135 +.00000001 +00000-0 -55329-4 0  9991
2 24727 082.6065 348.5639 0001251 049.6513 069.7010 12.62320545975965
Epoch (UTC): 22 April 2018 20:40:14
Eccentricity: 0.0001251
inclination: 82.6065°
perigee height: 1412 km
apogee height: 1414 km
right ascension of ascending node: 348.5639°
argument of perigee: 49.6513°
revolutions per day: 12.62320545
mean anomaly at epoch: 69.7010°
orbit number at epoch: 97596

The dashed part of the orbit path shows where the satellite is in the earth's shadow,  

DLR